Temp
-2 -2 -3 -3 -3 -3 -3 -3 -3 -3 -3 -2 -3 -3 -2 -2 -1 -1 -0 -0 1 -1 0 2 3 1 4 8 7 4 4 3 2 4 5 3 3 3 3 2 1 4 4 4 5 5 6 2 2 6 5 2 3 3
-2 -2 -2 -3 -3 -3 -2 -3 -2 -3 -3 -2 -3 -3 -2 -2 -2 -1 -0 -0 0 0 -0 2 3 2 3 3 8 6 8 3 5 3 1 2 4 2 2 3 1 5 4 3 4 6 3 4 5 5 5 4 2 2
-2 -2 -2 -2 -2 -3 -2 -2 -2 -3 -3 -2 -3 -3 -2 -2 -1 -2 -0 -0 0 0 -0 -0 2 5 4 5 7 7 5 7 6 8 2 0 3 2 4 3 2 1 3 3 4 4 2 3 3 4 4 4 3 2
-2 -2 -2 -2 -2 -3 -2 -3 -3 -3 -2 -3 -3 -3 -2 -2 -2 -1 -0 -0 -0 -0 -1 2 4 4 5 4 5 8 9 8 7 6 1 2 2 3 1 5 5 3 3 3 2 1 1 2 3 3 2 2 1 -1
-2 -2 -2 -2 -2 -2 -2 -2 -2 -3 -2 -2 -3 -3 -2 -2 -1 -1 -0 -0 -0 -1 -0 0 1 4 4 3 4 6 8 8 6 2 1 2 1 2 0 -0 1 2 3 5 5 5 6 3 3 2 1 -0 -2 -1
-1 -1 -2 -2 -2 -2 -2 -1 -2 -2 -2 -3 -3 -2 -2 -2 -1 -1 -1 0 0 0 0 0 1 2 2 2 3 4 6 7 7 5 2 2 4 3 3 4 3 5 5 5 4 4 3 1 1 -0 -1 -3 -4 -4
-1 -1 -2 -2 -2 -2 -2 -2 -2 -2 -3 -3 -3 -2 -2 -1 -2 -1 -0 -0 -0 0 -0 0 0 -2 -1 -0 0 2 3 5 5 5 1 1 1 3 2 6 -1 1 2 3 2 2 -4 -4 -4 -3 -3 -5 -5 -6
-2 -2 -2 -2 -2 -2 -2 -3 -3 -3 -3 -2 -2 -2 -2 -1 -1 -1 0 0 -1 -1 -1 -0 -1 -2 -1 -1 -1 -0 0 1 2 1 -0 0 -0 -0 2 -4 -3 -3 -2 -2 -2 -1 -0 -3 -5 -5 -5 -6 -7 -7
-2 -2 -2 -2 -3 -3 -3 -3 -3 -3 -2 -2 -2 -2 -2 -1 -1 -1 -1 -1 -1 -1 -1 -3 -2 -1 -2 -2 -2 -2 -0 1 -1 -0 -0 2 -1 2 -3 -4 -5 -5 -3 -5 -4 -3 -4 -5 -6 -7 -7 -8 -6 -7
-3 -3 -3 -3 -3 -3 -3 -3 -3 -3 -2 -2 -2 -2 -1 -2 -1 -1 -1 -1 -2 -1 -1 -1 -2 -2 -2 -2 -2 -2 -2 -2 -1 -2 -2 0 -2 -6 -6 -5 -5 -5 -4 -5 -6 -8 -7 -8 -7 -8 -8 -7 -6 -7
-3 -3 -3 -3 -3 -3 -3 -3 -3 -3 -2 -2 -2 -2 -1 -1 -1 -2 -2 -2 -2 -2 -3 -3 -3 -4 -3 -2 -2 -2 -2 -2 -1 -2 -1 -1 -4 -7 -7 -6 -6 -6 -6 -5 -5 -6 -6 -6 -7 -7 -8 -8 -8 -8
-2 -3 -3 -3 -3 -3 -3 -3 -2 -2 -2 -2 -2 -2 -2 -2 -2 -2 -2 -2 -2 -2 -4 -3 -3 -3 -3 -2 -2 -3 -2 -2 -2 -4 -2 -3 -7 -9 -8 -8 -7 -7 -6 -6 -5 -6 -6 -6 -7 -7 -7 -8 -8 -9
-2 -2 -2 -2 -2 -2 -2 -2 -2 -2 -2 -3 -3 -2 -3 -2 -2 -1 -1 -2 -3 -4 -4 -4 -4 -4 -3 -3 -3 -3 -3 -4 -4 -3 -4 -6 -8 -9 -9 -8 -8 -7 -7 -7 -7 -7 -7 -7 -8 -7 -8 -8 -9 -9
-2 -2 -2 -2 -2 -2 -3 -3 -3 -3 -3 -3 -2 -3 -4 -4 -6 -5 -5 -5 -5 -4 -4 -4 -4 -4 -4 -4 -4 -4 -4 -4 -3 -3 -4 -7 -9 -9 -9 -8 -8 -8 -8 -8 -7 -8 -7 -8 -8 -8 -9 -9 -9 -9
-2 -2 -3 -2 -3 -3 -3 -3 -3 -3 -3 -4 -4 -5 -5 -6 -6 -6 -5 -5 -5 -4 -4 -4 -4 -4 -4 -4 -4 -4 -3 -3 -4 -5 -7 -9 -9 -9 -9 -9 -9 -8 -8 -8 -8 -8 -8 -8 -8 -9 -9 -10 -10 -11
-2 -2 -3 -3 -3 -3 -3 -3 -2 -3 -4 -5 -7 -6 -7 -5 -6 -6 -7 -6 -6 -5 -4 -4 -3 -3 -5 -4 -4 -5 -3 -5 -7 -9 -10 -10 -9 -9 -9 -9 -9 -9 -8 -8 -9 -9 -9 -9 -10 -10 -11 -11 -11 -11
-3 -4 -4 -4 -4 -2 -2 -2 -3 -5 -6 -7 -7 -8 -8 -7 -7 -7 -8 -8 -7 -5 -5 -5 -4 -6 -6 -5 -6 -9 -9 -10 -10 -11 -10 -10 -9 -9 -9 -9 -9 -9 -9 -9 -9 -10 -10 -11 -11 -11 -11 -11 -11 -12
-3 -4 -4 -4 -3 -1 -2 -3 -4 -6 -8 -8 -8 -8 -8 -9 -9 -9 -9 -7 -6 -6 -6 -7 -6 -8 -8 -7 -8 -10 -12 -12 -12 -11 -11 -10 -10 -10 -10 -10 -10 -10 -10 -10 -11 -11 -11 -11 -11 -11 -11 -12 -12 -12
-4 -4 -4 -3 -2 -2 -2 -4 -5 -9 -9 -9 -8 -8 -8 -8 -8 -8 -7 -7 -7 -7 -7 -10 -13 -12 -12 -14 -13 -12 -12 -11 -11 -11 -11 -11 -11 -10 -10 -10 -10 -11 -11 -11 -11 -11 -11 -12 -12 -12 -12 -12 -12 -12
-3 -3 -2 -2 -2 -2 -4 -6 -7 -7 -10 -9 -9 -8 -8 -8 -9 -8 -8 -8 -8 -10 -15 -16 -16 -15 -15 -14 -14 -13 -12 -12 -11 -11 -12 -12 -11 -11 -11 -11 -11 -11 -11 -12 -12 -12 -12 -12 -12 -13 -13 -13 -13 -13
-2 -2 -2 -2 -2 -3 -6 -8 -9 -9 -9 -9 -9 -9 -8 -8 -10 -10 -11 -10 -12 -16 -16 -16 -16 -15 -14 -14 -13 -12 -12 -11 -11 -11 -11 -12 -12 -12 -12 -12 -12 -12 -12 -12 -12 -13 -13 -13 -13 -13 -13 -13 -14 -14
-2 -2 -2 -3 -3 -5 -7 -9 -9 -9 -9 -10 -10 -10 -12 -13 -13 -14 -13 -14 -16 -16 -16 -16 -15 -14 -14 -13 -13 -12 -12 -12 -11 -12 -11 -12 -12 -12 -12 -12 -12 -13 -13 -13 -13 -13 -13 -14 -14 -14 -14 -14 -14 -14
-2 -3 -3 -4 -4 -6 -10 -9 -9 -10 -12 -12 -10 -13 -16 -14 -13 -13 -16 -16 -16 -16 -15 -15 -15 -15 -14 -14 -13 -13 -13 -13 -12 -13 -13 -13 -13 -13 -13 -13 -13 -13 -14 -14 -14 -14 -14 -14 -14 -15 -15 -15 -15 -15
-3 -4 -6 -8 -9 -13 -10 -11 -11 -11 -12 -16 -17 -16 -16 -14 -13 -16 -20 -17 -17 -16 -15 -14 -14 -14 -14 -14 -13 -13 -13 -13 -13 -13 -13 -13 -13 -13 -13 -14 -14 -14 -14 -14 -14 -15 -15 -15 -15 -15 -15 -15 -15 -15
-4 -11 -10 -16 -12 -13 -17 -17 -17 -16 -18 -20 -19 -17 -16 -14 -18 -18 -17 -17 -17 -16 -16 -15 -15 -15 -15 -15 -14 -14 -14 -14 -14 -14 -14 -14 -14 -14 -14 -14 -14 -15 -15 -15 -15 -15 -15 -15 -15 -15 -15 -15 -15 -16
-16 -15 -16 -16 -15 -16 -17 -17 -18 -17 -20 -17 -16 -14 -13 -16 -15 -16 -17 -18 -17 -17 -16 -16 -15 -15 -15 -15 -15 -15 -14 -14 -14 -14 -14 -14 -14 -15 -15 -15 -15 -15 -16 -16 -16 -16 -16 -16 -16 -16 -16 -16 -16 -16
-17 -18 -15 -15 -15 -14 -15 -14 -14 -15 -16 -16 -15 -15 -12 -12 -14 -17 -17 -17 -17 -17 -17 -16 -16 -16 -16 -16 -16 -15 -15 -15 -15 -15 -15 -15 -16 -16 -16 -16 -16 -16 -16 -16 -16 -16 -16 -16 -16 -17 -16 -16 -16 -16
-16 -16 -20 -16 -16 -17 -19 -20 -21 -21 -18 -18 -17 -17 -16 -17 -16 -17 -17 -17 -17 -16 -16 -16 -16 -16 -16 -16 -16 -15 -15 -15 -16 -16 -16 -17 -17 -17 -17 -17 -17 -17 -17 -17 -16 -16 -17 -17 -17 -17 -17 -17 -17 -17
-15 -16 -16 -18 -17 -19 -21 -22 -21 -20 -20 -20 -21 -21 -18 -17 -17 -17 -16 -16 -16 -16 -16 -16 -16 -16 -16 -16 -16 -16 -16 -16 -16 -16 -17 -17 -18 -18 -18 -18 -17 -17 -17 -17 -17 -17 -17 -17 -17 -17 -17 -17 -17 -17
-16 -16 -16 -18 -21 -22 -19 -19 -18 -18 -19 -19 -18 -17 -17 -16 -16 -16 -16 -15 -15 -15 -16 -16 -16 -16 -16 -16 -16 -16 -17 -17 -17 -17 -17 -17 -18 -18 -18 -18 -18 -18 -18 -18 -18 -18 -18 -18 -17 -17 -17 -17 -17 -17
-16 -16 -16 -17 -18 -17 -17 -17 -17 -17 -17 -17 -17 -16 -16 -15 -15 -15 -15 -15 -15 -15 -16 -16 -16 -16 -16 -16 -17 -17 -17 -17 -17 -17 -18 -18 -18 -18 -18 -19 -19 -18 -18 -18 -18 -18 -18 -18 -18 -18 -18 -18 -18 -18
-15 -16 -17 -20 -17 -16 -17 -17 -16 -16 -16 -16 -16 -16 -15 -15 -15 -14 -15 -15 -15 -15 -15 -15 -16 -16 -16 -16 -16 -17 -17 -17 -17 -18 -18 -18 -18 -19 -19 -19 -19 -19 -19 -18 -18 -18 -18 -18 -18 -18 -18 -18 -18 -18
-15 -16 -16 -16 -16 -16 -16 -17 -16 -15 -15 -15 -15 -15 -15 -15 -14 -14 -14 -14 -15 -15 -15 -15 -16 -16 -16 -16 -16 -17 -17 -17 -17 -18 -18 -18 -20 -19 -19 -19 -19 -19 -18 -18 -18 -18 -18 -18 -18 -18 -18 -18 -18 -18
Height
1473 1469 1465 1461 1458 1456 1454 1452 1450 1448 1447 1445 1444 1442 1440 1439 1438 1438 1431 1432 1429 1421 1414 1415 1414 1415 1411 1404 1408 1416 1425 1425 1429 1433 1434 1436 1438 1438 1443 1446 1452 1450 1465 1466 1466 1466 1452 1435 1447 1447 1435 1435 1438 1441
1460 1455 1452 1448 1446 1443 1442 1440 1439 1438 1437 1435 1434 1433 1431 1430 1428 1426 1420 1422 1420 1415 1406 1405 1403 1404 1403 1401 1400 1402 1398 1403 1407 1419 1424 1423 1426 1434 1430 1437 1441 1436 1432 1444 1443 1431 1424 1424 1423 1427 1428 1431 1438 1441
1445 1441 1437 1435 1432 1430 1429 1428 1428 1427 1426 1425 1424 1423 1422 1420 1419 1418 1410 1414 1413 1408 1397 1396 1387 1387 1386 1387 1391 1390 1395 1394 1395 1396 1405 1412 1417 1417 1420 1424 1425 1426 1424 1428 1429 1417 1419 1421 1423 1425 1428 1430 1436 1441
1430 1426 1423 1421 1419 1418 1417 1416 1416 1416 1416 1415 1414 1414 1413 1411 1410 1407 1401 1404 1407 1401 1392 1381 1378 1375 1376 1374 1378 1381 1383 1387 1391 1393 1397 1403 1409 1404 1412 1403 1405 1410 1416 1419 1421 1418 1418 1418 1418 1421 1426 1430 1434 1440
1414 1412 1410 1408 1407 1407 1406 1404 1403 1403 1405 1405 1405 1405 1404 1402 1401 1397 1394 1394 1395 1396 1384 1375 1368 1365 1368 1367 1367 1371 1376 1378 1382 1389 1393 1398 1399 1402 1407 1409 1407 1401 1404 1407 1403 1397 1398 1402 1409 1415 1420 1425 1431 1438
1406 1402 1401 1399 1397 1395 1396 1393 1392 1392 1395 1397 1397 1396 1395 1394 1393 1389 1385 1383 1380 1380 1379 1371 1362 1355 1356 1359 1359 1361 1367 1370 1374 1375 1383 1386 1389 1394 1399 1396 1389 1391 1394 1394 1394 1396 1398 1400 1406 1411 1415 1421 1429 1437
1401 1396 1394 1391 1388 1385 1387 1386 1385 1385 1389 1390 1390 1389 1386 1384 1382 1380 1378 1376 1372 1372 1371 1366 1358 1354 1354 1356 1355 1355 1358 1364 1369 1372 1375 1381 1387 1389 1391 1379 1389 1390 1392 1393 1395 1396 1401 1403 1405 1410 1415 1423 1429 1437
1397 1392 1389 1387 1385 1384 1384 1383 1383 1384 1384 1384 1383 1382 1379 1376 1374 1371 1370 1371 1370 1368 1368 1361 1356 1357 1354 1355 1353 1353 1356 1360 1362 1364 1372 1376 1384 1387 1385 1386 1385 1387 1389 1393 1395 1395 1396 1399 1405 1412 1418 1424 1430 1437
1396 1391 1388 1386 1384 1384 1383 1382 1381 1380 1379 1378 1377 1374 1371 1369 1367 1363 1363 1363 1360 1365 1359 1359 1359 1353 1352 1353 1354 1354 1353 1356 1360 1361 1365 1370 1378 1378 1386 1387 1388 1389 1389 1391 1395 1396 1398 1402 1407 1415 1422 1428 1433 1439
1398 1394 1391 1388 1386 1384 1382 1380 1378 1376 1375 1373 1370 1367 1364 1361 1361 1362 1359 1357 1356 1354 1353 1350 1349 1351 1351 1352 1354 1356 1355 1358 1360 1366 1364 1364 1374 1385 1386 1385 1387 1390 1389 1393 1394 1400 1403 1408 1413 1418 1424 1431 1436 1440
1399 1396 1393 1390 1387 1384 1381 1378 1375 1372 1370 1367 1364 1361 1359 1358 1358 1357 1356 1356 1352 1351 1347 1346 1346 1348 1350 1350 1355 1358 1357 1358 1358 1367 1366 1369 1381 1389 1389 1388 1390 1391 1392 1394 1396 1399 1405 1408 1413 1419 1426 1432 1436 1441
1402 1398 1395 1391 1386 1382 1377 1373 1369 1368 1364 1363 1360 1358 1355 1354 1354 1353 1350 1349 1348 1346 1347 1345 1346 1346 1348 1347 1353 1359 1360 1361 1365 1370 1368 1376 1393 1394 1393 1392 1393 1395 1396 1396 1399 1402 1408 1413 1417 1422 1428 1433 1437 1441
1403 1399 1395 1390 1386 1381 1374 1369 1365 1364 1360 1358 1357 1354 1353 1352 1351 1349 1346 1347 1348 1348 1346 1346 1347 1346 1346 1344 1356 1360 1365 1371 1372 1372 1381 1392 1395 1397 1397 1396 1396 1398 1399 1401 1403 1408 1414 1417 1422 1426 1430 1434 1438 1441
1404 1399 1395 1390 1385 1379 1372 1368 1366 1362 1359 1357 1355 1355 1359 1358 1363 1362 1360 1357 1354 1349 1347 1347 1347 1347 1344 1346 1358 1365 1374 1374 1373 1377 1389 1396 1399 1401 1401 1401 1400 1402 1404 1407 1411 1415 1418 1421 1424 1428 1432 1436 1439 1441
1405 1400 1395 1389 1383 1378 1373 1369 1366 1362 1360 1360 1361 1368 1369 1369 1367 1363 1360 1357 1355 1352 1349 1347 1348 1347 1348 1354 1360 1368 1371 1379 1385 1392 1399 1402 1404 1405 1405 1405 1406 1408 1411 1413 1416 1419 1422 1425 1428 1431 1434 1437 1440 1441
1405 1400 1394 1389 1384 1379 1374 1369 1366 1364 1365 1369 1374 1375 1374 1371 1369 1365 1361 1358 1355 1352 1350 1349 1349 1351 1359 1360 1366 1377 1375 1390 1400 1403 1404 1405 1407 1408 1409 1410 1411 1413 1416 1418 1421 1424 1427 1429 1431 1433 1436 1438 1440 1441
1406 1402 1395 1390 1385 1380 1375 1370 1369 1371 1375 1380 1385 1384 1381 1380 1377 1374 1369 1364 1358 1354 1355 1354 1361 1370 1369 1373 1386 1397 1405 1409 1409 1408 1407 1409 1411 1412 1413 1414 1415 1418 1420 1423 1425 1427 1429 1432 1434 1435 1437 1438 1440 1441
1406 1402 1397 1392 1387 1381 1377 1375 1377 1382 1388 1391 1390 1389 1386 1385 1382 1377 1371 1366 1361 1359 1362 1371 1373 1384 1394 1396 1407 1415 1414 1414 1412 1413 1413 1414 1415 1417 1418 1418 1419 1422 1424 1426 1427 1428 1430 1433 1435 1436 1438 1438 1439 1440
1408 1404 1400 1394 1389 1385 1383 1385 1386 1392 1397 1396 1395 1392 1390 1388 1387 1384 1377 1372 1370 1369 1371 1381 1397 1410 1416 1419 1420 1418 1417 1417 1417 1417 1417 1418 1419 1420 1420 1421 1423 1425 1427 1428 1429 1431 1432 1434 1435 1437 1438 1438 1439 1440
1409 1406 1401 1396 1392 1388 1389 1393 1396 1397 1400 1401 1399 1396 1394 1393 1390 1388 1383 1378 1374 1378 1392 1409 1423 1425 1424 1424 1423 1422 1421 1421 1421 1420 1421 1421 1421 1422 1423 1424 1425 1427 1429 1430 1431 1432 1433 1435 1436 1436 1436 1437 1438 1439
1409 1406 1401 1398 1394 1394 1398 1401 1402 1404 1404 1403 1402 1400 1399 1396 1395 1392 1390 1390 1391 1413 1424 1428 1428 1427 1426 1426 1425 1425 1424 1424 1423 1422 1422 1423 1423 1424 1425 1426 1428 1429 1431 1431 1432 1433 1434 1435 1435 1436 1436 1436 1436 1437
1411 1407 1403 1401 1400 1401 1404 1407 1408 1408 1408 1407 1406 1405 1405 1406 1406 1406 1406 1406 1425 1434 1433 1432 1431 1430 1429 1429 1428 1428 1427 1427 1425 1424 1423 1424 1425 1426 1427 1428 1430 1430 1431 1433 1433 1433 1434 1435 1434 1434 1434 1434 1435 1435
1412 1409 1407 1405 1405 1407 1414 1411 1410 1411 1412 1413 1411 1412 1415 1415 1416 1415 1421 1430 1436 1437 1435 1434 1434 1433 1433 1432 1431 1431 1430 1429 1428 1427 1427 1428 1428 1429 1429 1430 1431 1432 1433 1433 1433 1433 1434 1434 1433 1433 1433 1433 1433 1432
1413 1412 1411 1413 1416 1418 1417 1416 1417 1417 1418 1420 1422 1424 1424 1422 1420 1423 1435 1438 1440 1439 1437 1436 1436 1435 1435 1434 1433 1432 1432 1432 1431 1431 1430 1431 1431 1431 1431 1432 1432 1433 1433 1433 1433 1433 1432 1432 1432 1431 1431 1430 1430 1429
1420 1427 1427 1427 1427 1425 1428 1428 1427 1425 1433 1432 1431 1430 1428 1426 1430 1437 1441 1442 1442 1441 1440 1439 1438 1437 1437 1437 1436 1436 1436 1435 1435 1434 1433 1433 1433 1433 1433 1433 1433 1433 1433 1433 1432 1431 1431 1430 1430 1429 1428 1428 1427 1427
1434 1440 1439 1439 1438 1437 1439 1439 1439 1438 1438 1435 1435 1432 1430 1431 1436 1443 1444 1444 1443 1443 1442 1441 1441 1440 1440 1440 1439 1439 1438 1437 1436 1436 1435 1435 1435 1435 1434 1434 1434 1433 1433 1432 1431 1430 1429 1429 1428 1427 1426 1426 1425 1424
1445 1447 1446 1446 1444 1443 1441 1441 1440 1440 1441 1441 1440 1436 1433 1435 1443 1446 1445 1444 1444 1444 1443 1443 1443 1442 1442 1441 1440 1440 1439 1438 1438 1437 1437 1436 1436 1436 1435 1435 1434 1433 1432 1430 1429 1428 1428 1427 1426 1425 1424 1423 1423 1422
1450 1450 1452 1449 1446 1446 1446 1446 1449 1451 1449 1447 1445 1444 1444 1447 1447 1446 1444 1444 1444 1443 1443 1443 1443 1443 1442 1442 1441 1440 1439 1439 1438 1437 1437 1437 1436 1435 1435 1434 1433 1432 1431 1430 1429 1428 1426 1425 1424 1423 1422 1422 1421 1420
1454 1453 1451 1450 1449 1449 1452 1454 1454 1453 1453 1451 1450 1449 1448 1447 1446 1445 1445 1444 1444 1444 1444 1443 1443 1442 1442 1441 1440 1439 1439 1438 1437 1436 1435 1435 1435 1435 1434 1434 1433 1431 1430 1429 1428 1427 1426 1425 1423 1421 1420 1418 1417 1416
1457 1455 1454 1453 1453 1457 1457 1455 1455 1454 1453 1451 1451 1450 1448 1447 1447 1446 1445 1445 1444 1444 1443 1443 1442 1442 1441 1440 1439 1438 1437 1436 1435 1435 1434 1433 1433 1433 1432 1432 1431 1430 1429 1428 1426 1425 1423 1421 1420 1418 1417 1416 1415 1414
1459 1457 1456 1456 1457 1458 1457 1457 1455 1454 1453 1452 1451 1450 1449 1448 1447 1447 1446 1445 1444 1444 1443 1442 1441 1440 1439 1438 1437 1436 1435 1435 1434 1433 1433 1432 1431 1431 1430 1430 1429 1428 1426 1424 1422 1420 1418 1416 1414 1413 1412 1411 1411 1409
1460 1460 1459 1459 1459 1459 1458 1457 1455 1454 1453 1452 1452 1450 1450 1449 1448 1448 1447 1446 1445 1443 1442 1441 1440 1439 1438 1437 1436 1435 1434 1433 1432 1431 1430 1430 1429 1429 1428 1427 1425 1423 1422 1420 1418 1415 1413 1411 1410 1409 1407 1406 1405 1404
1462 1461 1461 1460 1460 1459 1459 1457 1456 1455 1454 1453 1453 1452 1451 1451 1450 1450 1448 1447 1446 1444 1442 1441 1439 1438 1437 1435 1434 1433 1431 1430 1429 1428 1427 1427 1426 1427 1426 1423 1421 1419 1417 1415 1413 1411 1409 1407 1406 1404 1403 1401 1400 1399
Wind_Speed
43 43 42 41 40 38 36 36 35 36 36 34 32 32 31 29 27 28 36 28 27 7 25 36 39 29 19 27 11 9 6 2 3 4 5 5 4 8 5 7 9 10 9 5 4 6 12 13 7 9 4 7 13 16
47 45 44 42 40 41 39 36 36 35 36 34 32 31 31 28 27 37 34 31 32 28 24 23 36 43 41 36 29 26 7 9 13 4 2 3 3 3 5 5 2 5 8 8 11 9 2 32 4 15 13 16 14 22
46 45 43 42 40 39 39 38 37 35 35 35 31 30 31 28 29 37 30 28 28 24 33 37 38 29 29 39 32 19 11 14 12 9 5 3 4 4 6 5 4 4 6 4 4 7 6 25 10 16 13 17 18 16
46 43 41 39 40 37 37 36 37 36 35 34 29 28 30 27 29 34 27 27 28 11 4 15 22 25 29 36 45 36 21 22 12 13 3 3 3 8 4 2 6 4 12 7 4 1 3 10 24 21 19 20 15 16
38 38 35 36 36 39 35 38 37 36 33 30 28 27 29 27 31 30 27 29 31 25 4 7 19 29 33 28 30 40 33 26 18 4 2 4 5 4 1 2 3 7 7 7 7 15 8 9 31 28 27 21 20 22
30 30 29 29 30 37 36 34 35 25 28 25 25 26 26 26 32 25 10 18 23 30 7 3 9 14 16 22 34 33 28 23 20 12 4 6 6 6 5 5 1 17 11 9 4 15 9 13 29 29 26 25 23 18
28 26 28 27 26 16 22 19 19 15 17 21 23 26 27 25 26 19 9 10 1 8 6 3 3 3 6 12 15 19 29 22 12 10 5 7 6 7 2 10 6 7 6 6 8 16 13 22 15 25 25 26 24 20
25 23 22 18 15 13 9 9 11 15 18 19 23 25 24 26 29 23 30 30 31 16 6 3 3 3 11 4 2 8 7 9 12 8 7 4 5 3 4 3 9 10 10 12 14 6 12 19 27 26 26 27 25 21
22 20 17 12 9 9 11 13 14 15 16 21 23 22 23 18 12 11 18 18 14 12 3 3 3 3 8 2 2 3 5 2 2 2 3 9 3 4 3 2 8 12 9 15 12 15 22 29 30 29 26 23 22 20
20 16 14 13 12 13 13 14 16 19 20 21 20 7 5 6 13 8 5 4 6 10 10 3 5 2 4 2 1 2 2 2 2 1 7 3 3 7 11 4 9 12 12 18 24 20 25 29 30 27 24 20 17 16
17 16 15 14 14 15 17 19 20 21 16 13 5 7 10 10 5 6 4 5 5 2 4 3 6 3 4 3 2 2 1 1 2 1 2 1 2 3 7 11 13 15 17 9 10 21 21 27 28 26 22 18 16 13
16 15 16 17 19 19 21 22 21 18 16 13 11 14 6 5 5 3 3 2 1 1 1 1 2 4 4 5 3 2 2 1 2 2 2 2 2 4 9 13 15 15 13 17 19 21 21 22 22 21 20 17 14 12
17 18 19 20 21 22 24 20 16 17 17 10 4 3 2 2 2 2 2 1 2 2 1 1 0 2 3 6 3 2 4 2 1 3 2 2 5 7 11 14 16 15 16 20 21 20 22 22 19 17 17 14 12 11
16 18 18 18 19 23 26 22 12 19 4 3 3 3 4 3 3 2 2 3 4 5 3 4 1 1 2 4 2 4 2 1 2 3 3 2 6 9 10 13 16 18 18 20 22 22 21 20 19 15 12 11 10 9
16 15 17 19 21 24 18 19 22 12 4 7 6 5 4 4 5 9 7 5 12 8 5 1 3 3 3 4 3 3 3 4 4 3 2 4 9 10 12 13 16 18 19 20 19 17 16 14 12 12 11 10 9 7
18 14 20 23 27 24 21 19 15 8 5 6 9 5 13 3 7 13 16 13 17 11 3 2 2 3 5 3 4 5 3 4 2 2 4 7 9 9 11 12 14 15 15 16 15 13 11 11 10 10 9 8 6 5
17 12 21 24 23 22 19 16 7 8 6 6 5 15 9 4 5 9 13 18 15 7 3 3 5 4 1 4 5 5 4 2 5 7 7 7 8 10 11 12 13 13 13 12 11 10 9 9 8 7 6 5 5 4
17 18 22 25 25 19 14 13 6 7 7 8 3 12 9 13 12 16 20 24 15 7 5 3 3 8 5 4 3 3 6 7 8 8 9 8 9 10 10 11 12 11 10 9 8 6 6 6 5 4 4 4 5 4
17 19 21 23 23 12 7 8 7 5 8 4 6 13 6 6 16 23 22 14 12 14 7 7 7 4 4 5 5 9 10 5 4 8 10 9 9 8 9 9 8 8 7 6 5 4 5 4 4 4 4 4 4 5
14 16 18 20 18 5 4 6 6 5 5 7 10 12 5 7 14 17 28 24 24 10 12 6 3 4 4 7 7 8 8 8 6 7 9 9 8 8 8 7 6 6 5 4 3 3 3 3 3 3 3 4 5 5
14 15 16 18 10 11 6 5 6 5 3 4 9 8 5 9 14 20 21 19 17 9 5 8 9 7 6 8 8 8 7 7 7 5 4 8 8 7 7 6 5 4 3 2 2 2 2 2 2 3 4 4 5 6
19 16 10 10 8 5 7 10 4 4 3 4 6 8 7 6 10 13 11 17 8 8 6 9 10 10 9 10 10 9 9 7 8 9 9 8 8 6 6 5 4 3 2 1 1 2 2 3 4 4 5 6 6 6
16 11 6 11 4 7 4 8 3 7 4 7 6 4 5 6 11 8 7 7 6 10 10 7 8 8 8 9 8 9 11 10 11 12 11 9 8 7 5 4 3 2 1 1 1 2 3 4 4 5 6 6 6 7
11 6 8 7 11 4 6 6 5 6 5 4 3 3 4 7 11 7 3 4 6 8 8 7 5 6 6 7 10 10 10 10 9 8 8 7 6 5 4 3 2 2 2 3 3 4 4 4 5 6 6 7 8 8
4 11 8 8 10 8 7 6 7 6 3 3 3 4 4 6 3 3 2 2 4 6 7 7 7 7 7 7 8 8 6 5 6 6 6 5 4 4 4 3 3 3 4 4 4 5 5 5 6 6 7 7 7 8
7 10 7 8 7 5 3 4 4 4 2 5 3 6 4 2 4 2 1 1 2 4 5 6 5 5 5 5 5 4 5 5 4 4 4 4 4 4 4 4 4 5 5 6 6 6 6 7 7 7 8 8 8 10
5 4 6 8 5 4 3 4 3 3 4 5 4 4 3 3 3 1 1 1 0 1 2 2 2 2 3 3 3 4 4 4 3 3 3 3 3 3 4 4 5 6 7 8 8 8 7 7 8 8 9 8 9 9
5 8 3 11 5 7 2 4 4 4 3 8 5 5 2 1 1 2 2 1 1 1 1 1 2 2 2 3 3 4 4 4 4 4 2 1 2 3 5 5 6 7 8 9 9 8 8 7 8 10 10 10 8 9
5 11 5 7 4 6 6 3 1 3 6 4 1 1 2 3 4 3 2 1 1 1 2 3 4 4 4 5 6 6 6 5 5 5 5 6 5 4 4 6 7 8 9 9 9 9 7 9 11 14 13 13 10 11
7 12 3 4 3 2 4 4 3 4 5 5 3 3 3 4 4 3 2 2 2 2 3 4 5 6 6 6 7 7 7 7 6 5 5 5 5 7 8 8 7 9 10 11 12 11 12 13 13 13 13 13 11 10
7 6 2 4 2 2 3 5 4 4 4 4 5 4 4 4 3 4 4 4 5 5 6 7 8 8 8 8 7 7 7 6 6 6 6 6 7 7 7 9 12 13 13 15 16 18 17 16 16 16 16 15 15 16
7 6 3 2 1 2 5 5 5 3 4 3 4 5 6 4 4 4 7 7 7 7 8 8 8 8 8 8 9 9 9 9 9 9 8 8 8 7 9 13 16 16 18 21 21 18 16 16 15 15 15 14 14 15
3 5 4 2 2 3 6 7 4 4 2 3 4 6 6 5 3 6 8 8 9 10 9 9 9 9 9 9 9 10 10 9 9 9 10 11 10 10 12 13 18 23 22 19 17 16 15 15 14 14 14 15 15 14
Wind_Direction
295 292 288 287 285 282 282 284 284 281 282 283 285 285 285 283 291 281 272 266 251 250 268 267 274 274 281 209 208 162 110 213 104 185 173 193 173 206 150 158 171 163 164 188 176 223 261 141 107 177 187 140 164 163
293 290 288 287 284 281 279 278 279 280 280 284 281 283 280 284 287 285 271 264 274 251 255 255 271 277 275 263 215 181 207 162 172 159 203 129 164 164 151 204 156 193 183 179 191 205 141 175 169 185 165 155 162 158
296 293 287 284 281 281 277 275 276 277 278 282 278 278 281 281 282 289 276 266 266 263 260 263 264 275 289 243 234 187 215 196 188 181 157 173 197 147 170 224 144 239 170 208 137 204 197 193 193 185 173 167 162 162
296 291 288 282 279 278 279 275 274 273 274 278 274 276 280 278 284 287 275 266 271 260 259 253 262 261 290 240 238 231 224 196 189 178 131 164 182 192 205 193 196 176 151 176 270 134 105 209 206 183 167 158 165 169
298 290 287 286 280 275 278 283 270 272 267 275 272 274 281 279 293 282 275 266 267 237 270 260 282 281 272 259 212 221 216 201 172 143 131 204 149 129 71 53 226 190 173 177 218 193 190 195 198 188 175 172 166 169
310 300 292 293 290 278 278 278 280 260 265 268 272 274 279 285 291 290 255 271 256 240 254 257 259 268 256 244 221 210 200 194 190 169 178 177 165 164 185 219 259 197 208 225 197 166 183 162 176 182 178 164 164 165
321 312 304 298 306 290 281 287 283 273 263 271 273 280 283 287 283 272 239 278 1 211 231 253 251 281 225 198 186 191 201 208 206 177 163 140 160 181 207 249 151 173 206 228 182 151 123 156 166 170 168 157 154 153
324 320 314 312 307 300 296 296 286 277 276 275 286 286 288 289 292 271 263 277 268 271 236 262 276 273 175 212 147 160 151 166 185 162 131 124 128 102 248 46 146 161 167 162 175 195 183 159 153 152 158 153 150 153
346 339 332 330 329 311 304 293 288 287 285 293 292 293 288 283 256 252 265 239 240 208 225 180 219 232 170 136 138 134 149 145 149 132 150 147 134 211 32 341 187 171 158 145 131 130 142 149 148 150 151 150 153 150
347 348 348 337 326 318 308 305 304 301 300 297 299 270 259 228 240 245 271 246 213 204 219 228 172 205 147 108 33 68 72 129 138 35 130 164 108 80 25 52 171 161 145 150 133 124 142 143 149 147 149 153 155 152
352 349 350 348 339 330 321 314 307 304 299 274 243 229 243 250 242 215 226 199 190 236 230 189 178 144 191 125 125 335 147 142 116 111 124 88 71 34 45 106 130 139 138 130 146 151 153 151 150 147 150 152 153 155
353 350 348 344 335 329 324 319 320 303 294 290 270 292 261 214 207 210 213 232 246 270 268 187 188 167 143 119 100 47 91 10 91 183 81 80 63 61 98 107 119 128 120 114 127 130 137 143 147 149 149 152 155 159
353 347 341 336 336 333 334 350 319 312 305 291 257 247 214 189 243 285 314 20 346 327 270 143 264 152 149 96 77 53 58 43 197 40 63 51 97 104 109 112 111 114 116 120 121 126 137 139 142 147 148 153 159 163
349 344 343 344 349 349 341 352 341 339 313 286 306 19 15 21 26 350 312 306 318 340 51 90 70 3 59 70 92 83 48 202 64 58 56 65 135 127 123 117 117 115 120 126 132 137 139 141 142 146 151 157 164 168
348 339 344 348 348 348 349 349 344 348 16 27 24 33 26 334 343 343 354 21 7 352 350 340 58 62 44 82 64 120 109 71 35 54 50 102 145 140 131 127 124 125 128 128 130 134 136 140 146 151 156 164 167 170
343 335 346 348 351 347 352 345 344 15 49 42 38 4 344 3 1 9 359 349 355 345 335 14 81 61 45 49 54 12 64 42 57 38 68 126 132 131 129 128 127 126 129 129 132 136 140 144 149 155 159 161 167 177
341 347 339 347 347 345 353 353 10 43 42 35 24 11 7 354 343 339 343 344 353 351 28 17 43 25 303 48 43 20 37 25 16 43 70 111 130 135 135 134 133 134 136 137 139 141 145 147 150 158 168 172 183 197
348 349 345 344 347 353 2 21 50 53 49 24 23 351 26 46 16 10 7 14 22 29 28 58 54 39 33 37 39 25 47 57 64 73 90 106 123 130 134 137 136 138 141 140 135 136 142 150 163 174 183 194 207 217
355 347 345 348 352 356 10 30 38 78 38 7 351 5 359 13 18 17 26 31 48 57 80 48 54 39 38 28 8 23 20 26 75 86 95 106 116 126 131 135 137 138 138 132 129 145 160 174 187 199 206 216 229 238
346 338 341 352 354 6 54 37 41 62 41 3 6 2 9 359 359 11 27 35 48 52 41 44 38 17 14 18 25 25 44 60 71 97 100 108 113 119 122 127 132 135 137 133 150 162 175 194 212 231 243 242 246 251
1 347 345 353 12 41 64 32 48 46 20 38 358 4 356 359 19 15 18 23 54 37 53 35 19 33 49 50 51 55 54 50 49 63 116 131 120 118 119 119 118 120 126 139 163 186 213 232 248 253 259 265 263 263
344 343 344 5 26 49 55 31 38 15 20 13 11 13 28 15 6 12 12 47 60 30 31 28 51 66 73 73 65 64 57 49 67 77 92 111 110 104 104 103 105 110 110 130 188 230 256 264 266 272 273 271 273 275
344 348 8 16 53 35 22 14 39 18 44 356 358 35 20 11 5 359 66 54 64 20 34 58 56 57 63 66 70 73 69 66 77 82 85 86 90 93 93 94 94 94 87 355 313 299 285 282 280 281 280 281 284 282
357 22 22 30 21 7 350 26 26 17 34 21 22 20 358 348 354 57 67 51 19 26 44 53 58 42 63 65 60 58 57 54 56 64 70 68 64 67 59 45 26 360 335 321 311 305 298 291 287 287 288 286 286 285
4 13 17 0 16 17 23 2 355 26 31 336 39 2 346 347 57 54 61 18 24 35 48 56 62 65 62 58 48 42 40 43 47 45 53 49 44 35 26 13 358 345 339 325 313 306 300 297 297 299 301 301 301 298
64 19 34 357 358 39 343 18 8 359 8 11 352 324 344 56 53 36 28 1 30 34 38 44 49 52 48 42 30 24 29 35 35 35 39 33 29 26 21 14 5 351 345 339 332 324 316 310 307 306 305 305 301 292
50 341 17 16 342 327 17 23 17 35 29 9 347 330 346 58 36 341 334 315 282 18 24 33 34 25 17 12 7 5 11 15 17 19 9 2 11 18 14 11 3 353 351 342 330 324 321 318 317 314 313 308 304 299
56 23 18 350 24 26 70 35 34 15 343 340 307 20 53 46 283 330 306 293 225 254 257 315 341 335 332 337 341 343 336 331 325 322 323 333 350 359 8 9 1 357 356 353 352 350 345 345 337 319 312 305 290 302
28 356 353 15 34 43 43 52 7 6 346 349 29 331 324 345 339 336 342 306 269 286 305 327 332 328 317 315 314 314 318 321 314 301 290 281 272 279 305 329 330 329 329 331 329 324 329 335 306 307 315 314 292 280
8 3 11 32 62 10 19 26 19 3 9 9 351 339 341 1 13 20 19 13 352 330 321 318 316 315 313 314 314 315 316 314 311 307 300 292 276 273 287 296 307 314 315 318 319 311 305 299 294 293 294 298 296 282
347 351 18 45 81 64 10 349 349 356 3 4 14 2 352 344 2 17 14 3 350 339 333 329 326 323 321 321 321 318 315 311 302 295 291 285 283 288 290 300 309 314 310 310 316 317 311 305 300 296 293 289 284 280
8 23 21 31 43 342 347 347 344 337 354 360 2 0 355 351 8 12 7 1 356 348 339 332 328 327 324 321 317 313 309 304 297 293 287 284 288 290 313 313 310 309 312 316 317 314 311 308 306 303 300 297 293 289
3 15 32 21 1 5 353 345 354 352 4 19 17 13 12 7 359 6 357 354 351 345 339 333 329 326 323 320 315 312 308 303 297 291 287 289 293 304 302 310 309 306 312 316 314 312 309 308 309 305 302 300 300 297